Weather History for Miami, FL

Change the Weather History Date:

Monday, February 24, 2014

  Actual Average Record
Temperature  
Mean Temperature 78 °F 71 °F  
Max Temperature 86 °F 79 °F 89 °F (2008)
Min Temperature 70 °F 63 °F 37 °F (1989)
Degree Days  
Heating Degree Days 0 1  
Month to date heating degree days 4 24  
Since 1 July heating degree days 61 114  
Cooling Degree Days 13 7  
Month to date cooling degree days 229 143  
Year to date cooling degree days 381 294  
Growing Degree Days 28 (Base 50)    
Moisture  
Dew Point 67 °F    
Average Humidity 69    
Maximum Humidity 90    
Minimum Humidity 48    
Precipitation  
Precipitation T in 0.09 in 0.72 in (1942)
Month to date precipitation 0.94 1.92  
Year to date precipitation 2.85 3.54  
Snow  
Snow 0.00 in - - ()
Month to date snowfall 0.0  
Since 1 July snowfall 0.0  
Snow Depth 0.00 in    
Sea Level Pressure  
Sea Level Pressure 30.02 in    
Wind  
Wind Speed 5 mph (West)    
Max Wind Speed 12 mph    
Max Gust Speed 23 mph    
Visibility 10 miles    
Events      
T = Trace of Precipitation, MM = Missing Value Source: NWS Daily Summary

Daily Weather History Graph

Daily Weather History Graph

Search for Another Location

Airport:

Trip Planner

Search our weather history database for the weather conditions in past years. The results will help you decide how hot, cold, wet, or windy it might be!

Date:

Astronomy

Feb. 24, 2014 Rise Set
Actual Time 6:49 AM EST 6:20 PM EST
Civil Twilight 6:25 AM EST 6:43 PM EST
Nautical Twilight 5:59 AM EST 7:10 PM EST
Astronomical Twilight 5:32 AM EST 7:36 PM EST
Moon 2:28 AM EST (2/24) 1:37 PM EST (2/24)
Length of Visible Light 12h 17m
Length of Day
11h 31m
Waning Crescent, 28% of the Moon is Illuminated
Feb 24
Waning Crescent
Mar 1
New
Mar 8
First Quarter
Mar 16
Full
Mar 23
Last Quarter

Hourly Weather History & Observations

Time (EST) Temp. Heat Index Dew Point Humidity Pressure Visibility Wind Dir Wind Speed Gust Speed Precip Events Conditions
12:53 AM 73.9 °F - 70.0 °F 87% 30.03 in 10.0 mi WSW 3.5 mph - N/A   Partly Cloudy
1:53 AM 73.0 °F - 70.0 °F 90% 30.03 in 10.0 mi Calm Calm - N/A   Scattered Clouds
2:53 AM 73.9 °F - 70.0 °F 87% 30.02 in 10.0 mi NW 3.5 mph - N/A   Scattered Clouds
3:53 AM 73.0 °F - 69.1 °F 87% 30.01 in 10.0 mi Calm Calm - N/A   Partly Cloudy
4:53 AM 72.0 °F - 68.0 °F 87% 30.01 in 10.0 mi NW 3.5 mph - N/A   Partly Cloudy
5:53 AM 71.1 °F - 66.9 °F 87% 30.02 in 10.0 mi Calm Calm - N/A   Partly Cloudy
6:53 AM 70.0 °F - 66.9 °F 90% 30.03 in 10.0 mi Calm Calm - N/A   Scattered Clouds
7:53 AM 73.0 °F - 69.1 °F 87% 30.03 in 10.0 mi South 3.5 mph - N/A   Scattered Clouds
8:53 AM 75.9 °F - 69.1 °F 79% 30.04 in 10.0 mi South 5.8 mph - N/A   Mostly Cloudy
9:53 AM 78.1 °F - 69.1 °F 74% 30.05 in 10.0 mi WSW 6.9 mph - N/A   Mostly Cloudy
10:53 AM 81.0 °F 83.8 °F 68.0 °F 65% 30.04 in 10.0 mi SSW 6.9 mph - N/A   Mostly Cloudy
11:53 AM 82.9 °F 85.0 °F 66.0 °F 56% 30.04 in 10.0 mi South 5.8 mph - N/A   Mostly Cloudy
12:53 PM 84.0 °F 86.5 °F 66.9 °F 56% 30.02 in 10.0 mi NW 9.2 mph - N/A   Mostly Cloudy
1:53 PM 84.0 °F 85.8 °F 64.9 °F 53% 30.00 in 10.0 mi WNW 9.2 mph - N/A   Mostly Cloudy
2:53 PM 84.9 °F 86.1 °F 64.0 °F 49% 29.98 in 10.0 mi WNW 6.9 mph - N/A   Mostly Cloudy
3:53 PM 84.9 °F 85.9 °F 63.0 °F 48% 29.98 in 10.0 mi Variable 5.8 mph - N/A   Mostly Cloudy
4:53 PM 84.0 °F 84.9 °F 63.0 °F 49% 29.98 in 10.0 mi WSW 6.9 mph - N/A   Mostly Cloudy
5:53 PM 82.9 °F 84.0 °F 63.0 °F 51% 29.99 in 10.0 mi West 4.6 mph - N/A   Mostly Cloudy
6:53 PM 80.1 °F 82.1 °F 66.0 °F 62% 30.01 in 10.0 mi WNW 9.2 mph - N/A   Mostly Cloudy
7:53 PM 78.1 °F - 69.1 °F 74% 30.02 in 10.0 mi West 5.8 mph - 0.00 in   Scattered Clouds
8:53 PM 77.0 °F - 69.1 °F 76% 30.04 in 10.0 mi West 3.5 mph - N/A   Scattered Clouds
9:53 PM 78.1 °F - 64.9 °F 64% 30.06 in 10.0 mi NW 4.6 mph - N/A   Scattered Clouds
10:53 PM 75.9 °F - 64.9 °F 69% 30.06 in 10.0 mi NW 5.8 mph - N/A   Mostly Cloudy
11:53 PM 75.0 °F - 64.0 °F 69% 30.05 in 10.0 mi NW 6.9 mph - N/A   Mostly Cloudy